Location: Observatoire
(46.1952°N, 5.3391°E)
Time: 01:50:34
(UTC+01:00)

Explorer 7 - Pass Details

Date: 19 February 2026
Orbit: 430 x 541 km, 50.2° (Epoch: 9 March)

Event Time Altitude Azimuth Distance (km) Brightness Sun altitude
Rises 13:47:19 0° 186° (S) 2,392 11.2 31.3°
Reaches altitude 10° 13:50:58 10° 146° (SE) 1,550 9.7 31.2°
Maximum altitude 13:51:44 11° 133° (SE) 1,520 9.5 31.1°
Drops below altitude 10° 13:52:32 10° 119° (ESE) 1,562 9.4 31.1°
Sets 13:56:16 0° 80° (E) 2,470 9.9 30.9°
